When you browse on this site, cookies collect data to enhance your experience and personalize the content and advertising you see.
Visit our Privacy Policy to learn more. By continuing to use the site, you agree to this use of cookies and data.
  • En España
  • Lista de países
  • Para 7 días
  • Temperatura del agua
  • El tiempo en el mapa
  • Informadores
  • user-avatar
    Iniciar sesión

    Tiempo cada hora Borisovka

    Hoy, 30 Mayo, Sábado

    Tiempo Temperatura Precipitaciones Viento Presión Humedad
    00:00 +13°C° 0.1 mm 5 mps 743 mmHg 88%
    01:00 +13°C° 0.1 mm 5 mps 743 mmHg 90%
    02:00 +13°C° 0.1 mm 5 mps 743 mmHg 92%
    03:00 +13°C° 0 mm 5 mps 743 mmHg 92%
    04:00 +13°C° 0 mm 5 mps 742 mmHg 92%
    05:00 +13°C° 0 mm 5 mps 742 mmHg 92%
    06:00 +13°C° 0 mm 5 mps 742 mmHg 90%
    07:00 +14°C° 0 mm 6 mps 742 mmHg 88%
    08:00 +14°C° 0 mm 6 mps 742 mmHg 86%
    09:00 +14°C° 0.1 mm 6 mps 741 mmHg 87%
    10:00 +14°C° 0.1 mm 6 mps 741 mmHg 87%
    11:00 +14°C° 0.1 mm 6 mps 741 mmHg 88%
    12:00 +14°C° 1 mm 7 mps 740 mmHg 90%
    13:00 +12°C° 1 mm 7 mps 740 mmHg 92%
    14:00 +12°C° 1 mm 8 mps 740 mmHg 94%
    15:00 +12°C° 0.5 mm 8 mps 740 mmHg 94%
    16:00 +12°C° 0.5 mm 8 mps 739 mmHg 94%
    17:00 +12°C° 0.5 mm 8 mps 738 mmHg 94%
    18:00 +12°C° 0.2 mm 8 mps 738 mmHg 93%
    19:00 +13°C° 0.2 mm 9 mps 738 mmHg 92%
    20:00 +13°C° 0.2 mm 9 mps 738 mmHg 92%
    21:00 +12°C° 0.7 mm 9 mps 739 mmHg 92%
    22:00 +12°C° 0.7 mm 8 mps 739 mmHg 92%
    23:00 +12°C° 0.7 mm 8 mps 739 mmHg 93%

    Mañana, 31 Mayo, Domingo

    Tiempo Temperatura Precipitaciones Viento Presión Humedad
    00:00 +12°C° 2.2 mm 8 mps 739 mmHg 94%
    01:00 +11°C° 2.2 mm 8 mps 739 mmHg 94%
    02:00 +11°C° 2.2 mm 7 mps 739 mmHg 95%
    03:00 +11°C° 2.5 mm 7 mps 739 mmHg 95%
    04:00 +10°C° 2.5 mm 7 mps 739 mmHg 95%
    05:00 +10°C° 2.5 mm 7 mps 739 mmHg 96%
    06:00 +10°C° 1.4 mm 7 mps 739 mmHg 95%
    07:00 +10°C° 1.4 mm 8 mps 740 mmHg 94%
    08:00 +10°C° 1.4 mm 8 mps 740 mmHg 94%
    09:00 +10°C° 0.8 mm 7 mps 740 mmHg 92%
    10:00 +10°C° 0.8 mm 7 mps 741 mmHg 90%
    11:00 +10°C° 0.8 mm 6 mps 741 mmHg 89%
    12:00 +11°C° 0.1 mm 6 mps 742 mmHg 82%
    13:00 +13°C° 0.1 mm 5 mps 742 mmHg 76%
    14:00 +14°C° 0.1 mm 5 mps 742 mmHg 70%
    15:00 +14°C° 0.1 mm 5 mps 743 mmHg 69%
    16:00 +14°C° 0.1 mm 5 mps 743 mmHg 69%
    17:00 +14°C° 0.1 mm 5 mps 743 mmHg 69%
    18:00 +13°C° 0.1 mm 5 mps 744 mmHg 70%
    19:00 +12°C° 0.1 mm 5 mps 744 mmHg 71%
    20:00 +11°C° 0.1 mm 4 mps 744 mmHg 72%
    21:00 +8°C° 0 mm 4 mps 745 mmHg 73%
    22:00 +7°C° 0 mm 4 mps 745 mmHg 75%
    23:00 +6°C° 0 mm 4 mps 745 mmHg 76%

    Pasado mañana, 1 Junio, Lunes

    Tiempo Temperatura Precipitaciones Viento Presión Humedad
    00:00 +5°C° 0 mm 4 mps 745 mmHg 77%
    01:00 +5°C° 0 mm 4 mps 745 mmHg 79%
    02:00 +4°C° 0 mm 4 mps 745 mmHg 80%
    03:00 +4°C° 0 mm 4 mps 745 mmHg 79%
    04:00 +4°C° 0 mm 4 mps 745 mmHg 79%
    05:00 +4°C° 0 mm 4 mps 745 mmHg 78%
    06:00 +5°C° 0 mm 5 mps 745 mmHg 73%
    07:00 +6°C° 0 mm 5 mps 745 mmHg 69%
    08:00 +7°C° 0 mm 5 mps 745 mmHg 64%
    09:00 +8°C° 0 mm 6 mps 746 mmHg 63%
    10:00 +8°C° 0 mm 6 mps 746 mmHg 62%
    11:00 +9°C° 0 mm 6 mps 746 mmHg 60%
    12:00 +9°C° 0 mm 5 mps 746 mmHg 64%
    13:00 +8°C° 0 mm 5 mps 746 mmHg 67%
    14:00 +8°C° 0 mm 5 mps 746 mmHg 71%
    15:00 +8°C° 0.1 mm 4 mps 746 mmHg 75%
    16:00 +8°C° 0.1 mm 4 mps 746 mmHg 80%
    17:00 +7°C° 0.1 mm 4 mps 746 mmHg 84%
    18:00 +8°C° 0.1 mm 3 mps 746 mmHg 85%
    19:00 +8°C° 0.1 mm 3 mps 746 mmHg 86%
    20:00 +8°C° 0.1 mm 2 mps 746 mmHg 86%
    21:00 +7°C° 0 mm 2 mps 746 mmHg 88%
    22:00 +7°C° 0 mm 3 mps 746 mmHg 90%
    23:00 +7°C° 0 mm 3 mps 746 mmHg 91%

    2 Junio, Martes

    Tiempo Temperatura Precipitaciones Viento Presión Humedad
    00:00 +5°C° 0 mm 3 mps 746 mmHg 92%
    01:00 +5°C° 0 mm 3 mps 746 mmHg 92%
    02:00 +5°C° 0 mm 3 mps 745 mmHg 93%
    03:00 +5°C° 0 mm 3 mps 745 mmHg 92%
    04:00 +5°C° 0 mm 4 mps 745 mmHg 91%
    05:00 +5°C° 0 mm 4 mps 745 mmHg 90%
    06:00 +7°C° 0 mm 4 mps 745 mmHg 82%
    07:00 +8°C° 0 mm 5 mps 745 mmHg 75%
    08:00 +10°C° 0 mm 5 mps 745 mmHg 68%
    09:00 +12°C° 0 mm 5 mps 745 mmHg 64%
    10:00 +13°C° 0 mm 6 mps 745 mmHg 59%
    11:00 +14°C° 0 mm 6 mps 745 mmHg 55%
    12:00 +14°C° 0.1 mm 6 mps 745 mmHg 57%
    13:00 +14°C° 0.1 mm 6 mps 745 mmHg 58%
    14:00 +14°C° 0.1 mm 5 mps 744 mmHg 60%
    15:00 +14°C° 0 mm 5 mps 744 mmHg 63%
    16:00 +14°C° 0 mm 5 mps 744 mmHg 66%
    17:00 +13°C° 0 mm 5 mps 744 mmHg 69%
    18:00 +12°C° 0 mm 4 mps 744 mmHg 73%
    19:00 +11°C° 0 mm 4 mps 743 mmHg 77%
    20:00 +10°C° 0 mm 3 mps 743 mmHg 82%
    21:00 +8°C° 0 mm 4 mps 743 mmHg 83%
    22:00 +8°C° 0 mm 4 mps 743 mmHg 85%
    23:00 +8°C° 0 mm 4 mps 743 mmHg 86%

    3 Junio, Miércoles

    Tiempo Temperatura Precipitaciones Viento Presión Humedad
    00:00 +8°C° 0 mm 4 mps 743 mmHg 85%
    01:00 +8°C° 0 mm 5 mps 742 mmHg 83%
    02:00 +9°C° 0 mm 5 mps 742 mmHg 81%
    03:00 +9°C° 0.3 mm 5 mps 742 mmHg 86%
    04:00 +8°C° 0.3 mm 5 mps 741 mmHg 90%
    05:00 +8°C° 0.3 mm 5 mps 741 mmHg 94%
    06:00 +8°C° 0.7 mm 5 mps 741 mmHg 95%
    07:00 +9°C° 0.7 mm 5 mps 741 mmHg 96%
    08:00 +9°C° 0.7 mm 5 mps 741 mmHg 97%
    09:00 +9°C° 1 mm 5 mps 741 mmHg 97%
    10:00 +9°C° 1 mm 5 mps 741 mmHg 97%
    11:00 +10°C° 1 mm 5 mps 741 mmHg 97%
    12:00 +10°C° 0.8 mm 5 mps 740 mmHg 96%
    13:00 +12°C° 0.8 mm 4 mps 740 mmHg 96%
    14:00 +12°C° 0.8 mm 4 mps 740 mmHg 96%
    15:00 +13°C° 0.1 mm 4 mps 740 mmHg 95%
    16:00 +13°C° 0.1 mm 4 mps 740 mmHg 94%
    17:00 +14°C° 0.1 mm 4 mps 740 mmHg 93%
    18:00 +13°C° 0.2 mm 4 mps 740 mmHg 94%
    19:00 +13°C° 0.2 mm 3 mps 740 mmHg 95%
    20:00 +14°C° 0.2 mm 2 mps 740 mmHg 96%
    21:00 +13°C° 0.1 mm 2 mps 740 mmHg 97%
    22:00 +13°C° 0.1 mm 2 mps 740 mmHg 97%
    23:00 +12°C° 0.1 mm 2 mps 740 mmHg 97%

    4 Junio, Jueves

    Tiempo Temperatura Precipitaciones Viento Presión Humedad
    00:00 +12°C° 0 mm 2 mps 740 mmHg 97%
    01:00 +12°C° 0 mm 1 mps 740 mmHg 97%
    02:00 +11°C° 0 mm 1 mps 740 mmHg 96%
    03:00 +11°C° 0 mm 1 mps 740 mmHg 96%
    04:00 +11°C° 0 mm 1 mps 740 mmHg 96%
    05:00 +11°C° 0 mm 1 mps 740 mmHg 95%
    06:00 +12°C° 0 mm 1 mps 740 mmHg 91%
    07:00 +14°C° 0 mm 2 mps 740 mmHg 87%
    08:00 +15°C° 0 mm 2 mps 740 mmHg 82%
    09:00 +16°C° 0.2 mm 2 mps 740 mmHg 77%
    10:00 +17°C° 0.2 mm 3 mps 740 mmHg 72%
    11:00 +18°C° 0.2 mm 3 mps 740 mmHg 66%
    12:00 +18°C° 0.2 mm 3 mps 740 mmHg 65%
    13:00 +18°C° 0.2 mm 3 mps 740 mmHg 63%
    14:00 +19°C° 0.2 mm 3 mps 739 mmHg 61%
    15:00 +18°C° 0.1 mm 3 mps 739 mmHg 64%
    16:00 +18°C° 0.1 mm 3 mps 739 mmHg 67%
    17:00 +18°C° 0.1 mm 2 mps 739 mmHg 70%
    18:00 +16°C° 0.1 mm 2 mps 739 mmHg 77%
    19:00 +15°C° 0.1 mm 2 mps 739 mmHg 83%
    20:00 +13°C° 0.1 mm 2 mps 739 mmHg 90%
    21:00 +13°C° 0 mm 2 mps 739 mmHg 91%
    22:00 +12°C° 0 mm 2 mps 739 mmHg 92%
    23:00 +11°C° 0 mm 1 mps 739 mmHg 94%
    Mostrar más